Location: *
(43.6428°N, 11.5461°E)
Time: 21:07:00
(UTC+00:00)

Meteor 2-1 Rocket - Pass Details

Date: 21 October 2019
Orbit: 829 x 908 km, 81.3° (Epoch: 11 November)

Event Time Altitude Azimuth Distance (km) Brightness Sun altitude
Rises 18:15:19 0° 184° (S) 3,356 7.3 -21.3°
Reaches altitude 10° 18:17:42 10° 184° (S) 2,428 6.6 -21.7°
Maximum altitude 18:23:11 79° 99° (E) 854 4.0 -22.7°
Drops below altitude 10° 18:28:47 10° 12° (NNE) 2,473 6.6 -23.7°
Sets 18:31:13 0° 12° (NNE) 3,423 7.3 -24.2°
